Weather History for Pasco, WA

Change the Weather History Date:

Monday, October 7, 2013

  Actual Average Record
Temperature  
Mean Temperature 57 °F 55 °F  
Max Temperature 70 °F 70 °F 88 °F (2014)
Min Temperature 43 °F 40 °F 29 °F (2012)
Degree Days  
Heating Degree Days 8 10  
Month to date heating degree days 92 61  
Since 1 July heating degree days 160 172  
Cooling Degree Days 0 0  
Month to date cooling degree days 0 0  
Year to date cooling degree days 995 709  
Growing Degree Days 6 (Base 50)    
Moisture  
Dew Point 41 °F    
Average Humidity 62    
Maximum Humidity 92    
Minimum Humidity 32    
Precipitation  
Precipitation T in 0.02 in 0.34 in (1985)
Month to date precipitation 0.01 0.15  
Year to date precipitation 4.32 6.03  
Snow  
Snow 0.00 in - - ()
Snow Depth 0.00 in    
Sea Level Pressure  
Sea Level Pressure 29.93 in    
Wind  
Wind Speed 11 mph (SW)    
Max Wind Speed 32 mph    
Max Gust Speed 39 mph    
Visibility 10 miles    
Events      
T = Trace of Precipitation, MM = Missing Value Source: NWS Daily Summary

Daily Weather History Graph

Daily Weather History Graph

Search for Another Location

Airport:

Trip Planner

Search our weather history database for the weather conditions in past years. The results will help you decide how hot, cold, wet, or windy it might be!

Date:

Astronomy

Oct. 07, 2013 Rise Set
Actual Time 7:03 AM PDT 6:24 PM PDT
Civil Twilight 6:33 AM PDT 6:54 PM PDT
Nautical Twilight 5:58 AM PDT 7:28 PM PDT
Astronomical Twilight 5:23 AM PDT 8:03 PM PDT
Moon 10:09 AM PDT (10/7) 8:01 PM PDT (10/7)
Length of Visible Light 12h 20m
Length of Day
11h 20m
Waxing Crescent, 9% of the Moon is Illuminated
Oct 7
Waxing Crescent
Oct 11
First Quarter
Oct 18
Full
Oct 26
Last Quarter
Nov 3
New

Hourly Weather History & Observations

Time (PDT) Temp. Windchill Dew Point Humidity Pressure Visibility Wind Dir Wind Speed Gust Speed Precip Events Conditions
12:53 AM 45.0 °F 43.5 °F 42.1 °F 90% 29.94 in 10.0 mi ESE 3.5 mph - N/A   Clear
1:53 AM 48.0 °F - 42.1 °F 80% 29.93 in 10.0 mi Calm Calm - N/A   Clear
2:53 AM 48.9 °F - 42.1 °F 77% 29.92 in 10.0 mi SSE 5.8 mph - N/A   Clear
3:53 AM 44.1 °F 40.1 °F 39.9 °F 85% 29.91 in 10.0 mi NNW 6.9 mph - N/A   Clear
4:53 AM 45.0 °F - 41.0 °F 86% 29.91 in 10.0 mi Calm Calm - N/A   Clear
5:53 AM 48.9 °F - 41.0 °F 74% 29.90 in 10.0 mi South 6.9 mph - N/A   Clear
6:53 AM 54.0 °F - 41.0 °F 62% 29.89 in 10.0 mi SSE 4.6 mph - 0.00 in   Overcast
7:53 AM 57.0 °F - 39.9 °F 53% 29.91 in 10.0 mi SW 12.7 mph - N/A   Mostly Cloudy
8:53 AM 59.0 °F - 41.0 °F 51% 29.91 in 10.0 mi SW 15.0 mph - N/A   Scattered Clouds
9:53 AM 60.1 °F - 44.1 °F 55% 29.93 in 10.0 mi SW 16.1 mph 21.9 mph N/A   Mostly Cloudy
10:53 AM 64.0 °F - 44.1 °F 48% 29.93 in 10.0 mi SW 25.3 mph 29.9 mph N/A   Scattered Clouds
11:53 AM 66.9 °F - 46.0 °F 47% 29.92 in 10.0 mi SW 20.7 mph 26.5 mph N/A   Scattered Clouds
12:53 PM 69.1 °F - 42.1 °F 38% 29.91 in 10.0 mi SW 23.0 mph 33.4 mph N/A   Mostly Cloudy
1:53 PM 69.1 °F - 39.9 °F 35% 29.91 in 10.0 mi WSW 25.3 mph 36.8 mph N/A   Widespread Dust
2:53 PM 69.1 °F - 39.0 °F 33% 29.91 in 10.0 mi SW 26.5 mph 36.8 mph N/A   Widespread Dust
3:53 PM 68.0 °F - 37.9 °F 33% 29.92 in 10.0 mi SW 26.5 mph 33.4 mph N/A   Widespread Dust
4:53 PM 66.0 °F - 37.9 °F 36% 29.92 in 10.0 mi SW 26.5 mph 33.4 mph N/A   Widespread Dust
5:53 PM 63.0 °F - 39.0 °F 41% 29.94 in 10.0 mi SW 21.9 mph 33.4 mph N/A   Widespread Dust
6:53 PM 59.0 °F - 39.0 °F 48% 29.96 in 10.0 mi WSW 10.4 mph - N/A   Widespread Dust
7:53 PM 57.0 °F - 39.0 °F 51% 29.97 in 10.0 mi WSW 11.5 mph - N/A   Widespread Dust
8:53 PM 55.0 °F - 39.9 °F 57% 29.98 in 10.0 mi WSW 18.4 mph 26.5 mph N/A   Widespread Dust
9:53 PM 54.0 °F - 39.9 °F 59% 29.98 in 10.0 mi WSW 16.1 mph 19.6 mph N/A   Widespread Dust
10:53 PM 53.1 °F - 41.0 °F 64% 29.98 in 10.0 mi SW 17.3 mph - N/A   Widespread Dust
11:53 PM 53.1 °F - 41.0 °F 64% 29.98 in 10.0 mi WSW 13.8 mph - N/A   Widespread Dust